Temperature
12 12 12 12 12 12 12 12 12 12 12 12 12 12 12 12 12 12 12 12 12 12 12 12 12 12 12 11 11 11 11 11 10 10 10 10 9 10 9 9 9 9 9
11 11 11 11 11 11 11 12 12 12 12 12 12 12 11 11 11 11 11 11 11 11 11 11 11 11 11 11 11 11 10 10 10 10 9 9 9 9 9 9 9 8 8
11 11 11 11 11 11 11 11 11 11 11 11 11 11 11 11 11 11 11 11 11 11 11 11 11 11 11 10 10 10 10 10 9 9 9 8 8 8 8 8 8 8 8
11 10 10 10 10 11 11 11 11 11 11 11 11 11 11 10 10 10 10 10 10 10 10 10 10 10 10 10 10 10 10 9 9 9 9 8 8 8 8 8 7 7 7
10 9 9 10 10 10 10 10 10 10 10 11 11 10 10 10 10 10 10 10 10 10 10 10 10 10 10 9 9 9 9 9 9 9 8 8 8 8 7 7 7 7 7
9 9 9 9 9 9 10 10 10 10 10 10 10 10 10 10 9 9 9 9 9 9 9 9 9 9 9 9 9 9 9 9 8 8 8 8 7 7 7 6 6 6 7
8 8 8 8 8 9 9 9 9 9 9 9 9 10 10 10 9 9 9 9 9 9 9 9 9 9 9 9 8 8 8 8 8 8 8 7 7 7 6 6 6 6 6
8 8 8 8 8 8 8 8 9 8 9 9 9 9 9 9 9 9 9 9 9 9 9 9 9 8 8 8 8 8 8 8 8 7 7 7 6 6 6 6 5 5 5
7 7 7 7 7 7 7 8 8 8 8 8 9 9 9 9 8 8 9 9 9 9 8 8 8 8 8 8 7 7 7 7 7 7 7 6 6 6 5 5 5 4 4
6 6 6 6 7 7 7 7 7 7 8 8 8 8 8 8 8 8 8 8 8 8 8 8 8 7 7 7 7 7 7 6 6 6 6 6 6 5 5 5 4 4 3
5 5 6 6 6 6 6 7 7 7 7 7 7 7 7 7 7 7 7 7 7 7 7 7 7 7 7 7 7 7 6 6 6 6 6 5 5 5 4 4 4 3 3
5 5 5 5 5 6 6 6 6 6 6 7 7 7 7 7 7 7 7 7 7 7 7 7 6 6 6 6 6 6 6 6 5 5 5 5 4 4 4 4 3 3 3
4 4 4 4 5 5 5 5 5 6 6 6 6 6 6 6 6 7 6 6 6 6 6 6 6 6 6 6 5 5 5 5 5 5 4 4 4 4 3 3 3 3 2
4 3 4 4 4 4 4 4 5 5 5 5 5 5 5 6 6 6 6 6 6 6 6 6 5 5 5 5 5 5 4 4 4 4 4 4 4 3 3 3 2 2 2
3 3 3 3 3 3 4 4 4 4 4 4 4 5 5 5 5 5 5 5 5 5 5 5 5 5 4 4 4 4 4 4 4 4 4 3 3 3 2 2 2 2 2
2 2 2 2 2 3 3 3 3 3 4 4 4 4 4 4 4 4 4 4 4 4 4 4 4 4 4 4 4 3 3 3 3 3 3 3 3 2 2 2 1 1 1
1 1 1 1 2 2 2 2 3 3 3 3 3 3 3 3 4 4 4 4 4 4 4 4 3 3 3 3 3 3 3 3 3 3 2 2 2 2 2 1 1 1 0
1 1 1 1 1 2 2 2 2 2 2 2 2 3 3 3 3 3 3 3 3 3 3 3 3 3 3 3 2 2 2 2 2 2 2 2 1 1 1 1 1 0 0
0 1 1 1 1 1 1 2 2 2 2 2 2 2 2 2 2 2 2 2 2 2 2 2 2 2 2 2 2 2 2 2 2 1 1 1 1 1 0 0 0 0 0
0 0 0 0 0 1 1 1 1 1 1 1 1 1 2 2 2 2 2 2 2 2 2 1 2 1 1 1 1 1 1 1 1 1 1 0 0 0 -0 -0 -0 -0 -0
-0 -1 -0 -0 -0 -0 0 0 0 1 1 1 1 1 1 1 1 1 1 1 1 1 1 1 1 1 1 1 1 1 1 1 0 0 -0 -0 -0 -0 -1 -1 -1 -1 -1
-1 -1 -1 -1 -1 -1 -0 -0 -0 0 0 1 1 1 1 1 0 0 0 0 0 0 0 0 0 0 0 0 0 0 0 -0 -0 -0 -1 -1 -1 -1 -1 -1 -1 -1 -2
-2 -2 -2 -1 -1 -1 -1 -1 -1 -0 0 0 0 0 0 0 -0 -0 -0 -0 -0 -0 -0 -0 -0 -0 -0 -0 -0 -0 -1 -1 -1 -1 -1 -1 -1 -1 -1 -2 -2 -2 -2
-2 -2 -2 -2 -2 -2 -2 -1 -1 -1 -0 -0 -0 -0 -1 -1 -1 -1 -1 -1 -1 -0 -1 -1 -1 -1 -1 -1 -1 -1 -1 -1 -1 -1 -2 -2 -2 -2 -2 -2 -2 -2 -3
-3 -3 -2 -2 -2 -2 -2 -2 -1 -1 -1 -1 -1 -1 -1 -1 -1 -1 -1 -1 -1 -1 -1 -1 -1 -1 -1 -1 -1 -2 -2 -2 -2 -2 -2 -2 -2 -2 -2 -2 -3 -3 -3
-3 -3 -3 -3 -2 -2 -2 -2 -2 -2 -2 -2 -2 -2 -2 -2 -2 -2 -2 -2 -2 -2 -2 -1 -2 -2 -2 -2 -2 -2 -2 -2 -2 -2 -2 -2 -3 -3 -3 -3 -3 -3 -3
Wind_Speed
5 4 4 4 4 4 5 6 6 6 5 4 3 3 3 3 2 4 5 5 5 6 5 4 3 3 2 1 1 1 2 2 1 2 2 2 1 0 1 1 2 1 2
5 4 4 4 3 4 4 4 6 6 5 4 3 3 3 2 2 4 4 5 5 5 5 4 3 3 2 2 2 2 1 1 1 1 0 1 2 2 1 0 0 1 1
6 5 4 4 3 4 4 3 4 5 5 5 5 4 3 3 2 2 2 4 5 5 5 4 4 3 2 2 2 2 2 0 0 1 1 1 1 2 2 1 1 1 1
5 4 4 3 2 3 3 3 3 4 5 6 6 6 4 3 3 3 3 4 5 5 5 4 4 3 3 2 1 2 1 1 0 1 1 0 1 0 2 2 2 2 2
4 3 3 3 2 2 3 3 3 3 4 5 7 6 5 3 3 4 4 4 3 5 5 5 5 3 3 2 2 1 2 1 0 0 1 1 1 1 1 3 3 2 2
3 3 3 3 2 3 2 2 3 2 2 4 6 6 7 6 6 5 5 4 3 3 4 5 5 4 3 2 2 2 1 1 1 1 1 0 0 1 1 2 3 3 3
4 4 4 3 3 3 2 2 3 2 1 3 4 6 7 7 7 6 6 5 4 3 3 3 3 3 3 3 3 2 1 1 1 0 1 1 1 1 1 1 2 3 3
3 3 3 3 3 3 3 3 2 2 2 3 3 4 5 4 4 4 5 5 4 4 4 4 4 4 4 3 2 1 1 1 1 0 1 1 1 1 1 1 1 3 3
3 3 3 2 3 3 3 3 3 2 2 3 3 4 4 4 4 4 4 4 4 4 5 4 4 4 4 3 2 1 1 1 1 0 0 0 1 1 1 1 1 1 3
2 2 2 2 2 2 2 3 3 3 2 2 3 3 3 3 4 4 4 4 4 4 5 4 3 3 3 3 3 2 1 1 1 1 0 1 1 1 1 1 1 2 3
2 1 1 1 2 2 2 2 3 3 3 3 3 3 3 3 3 3 3 4 4 5 4 4 4 3 3 3 3 2 2 2 1 1 1 1 1 1 2 2 1 2 2
1 1 1 1 2 1 1 1 3 3 3 3 3 3 3 3 3 3 3 4 4 4 4 4 4 3 3 3 3 3 2 2 2 1 1 1 1 2 2 2 2 3 3
1 1 1 1 1 1 1 1 2 2 2 3 3 2 3 3 3 2 2 3 3 3 3 4 3 3 3 3 3 2 2 2 2 1 2 2 2 2 2 3 3 3 3
2 2 1 1 1 1 1 1 1 2 2 3 3 2 2 2 2 2 2 3 3 3 3 3 3 3 3 3 3 3 2 2 2 2 2 2 3 3 3 3 4 3 3
2 2 2 2 2 2 1 1 1 1 2 2 2 2 1 2 2 2 3 3 3 3 3 3 2 2 2 2 2 3 2 2 2 2 2 2 3 3 3 3 3 3 3
1 2 2 2 2 1 1 1 0 0 1 2 1 1 1 2 2 2 2 3 3 3 3 3 3 2 2 2 2 1 2 2 2 2 2 2 3 3 4 5 5 5 4
1 1 1 2 2 2 1 1 0 1 1 1 1 1 1 1 2 2 2 3 3 3 3 2 2 2 2 2 2 2 1 2 2 2 2 2 3 3 3 4 6 6 7
1 1 1 2 2 2 1 1 0 1 1 1 1 1 1 1 1 2 3 2 2 2 2 2 2 2 2 2 2 2 1 1 1 1 2 2 2 3 3 3 3 4 4
1 1 1 1 2 2 1 1 1 1 1 0 1 1 1 2 2 2 2 2 2 2 2 2 2 2 2 2 1 1 1 1 0 1 1 2 2 4 5 3 4 5 5
1 1 1 1 2 2 2 1 1 1 0 1 1 1 1 2 2 2 2 2 2 2 2 2 2 2 2 1 1 1 1 1 0 1 1 3 4 5 6 4 4 5 6
2 2 2 2 1 1 1 1 1 1 1 1 0 0 1 1 2 2 1 2 2 2 2 2 1 2 2 1 1 1 1 1 1 1 1 2 5 6 7 6 4 6 6
2 2 2 2 2 2 2 1 1 1 1 1 0 1 1 1 1 2 1 1 2 2 2 2 1 1 1 1 1 1 2 1 1 1 2 2 5 6 6 5 5 6 6
2 2 2 2 2 2 2 1 1 1 1 1 1 1 1 1 1 2 2 2 2 2 1 1 1 1 0 0 1 2 2 2 1 1 3 4 5 5 4 5 6 6 3
2 2 1 2 2 3 3 2 2 1 1 2 1 1 2 2 2 1 1 2 2 2 1 1 1 1 0 0 0 1 1 1 1 1 2 3 3 4 4 4 4 3 3
2 1 1 2 2 2 2 2 2 2 2 1 1 1 1 2 2 1 1 1 1 2 2 2 2 2 1 1 2 1 1 1 1 1 1 1 2 2 3 3 3 3 3
1 1 1 2 2 2 3 3 2 1 2 1 1 1 1 1 2 2 2 3 1 1 1 1 1 1 1 2 2 2 2 2 1 1 1 1 1 2 2 3 3 3 4
Wind_Direction
166 152 137 130 139 140 138 144 138 135 128 126 133 134 137 130 115 109 114 116 117 118 111 102 100 93 100 115 113 104 98 68 55 44 355 322 302 282 151 104 87 50 13
155 155 140 133 135 139 139 146 146 145 139 139 139 134 133 134 124 110 110 114 114 114 114 105 104 99 96 84 66 82 80 68 75 88 51 323 319 324 314 6 64 354 14
159 158 149 142 147 153 152 154 154 151 147 136 125 116 108 109 110 125 132 111 112 111 109 104 97 93 98 105 76 71 72 120 338 69 113 148 257 307 281 267 279 313 335
156 151 145 135 152 153 144 151 162 155 150 147 147 148 149 157 167 154 137 118 115 115 113 110 104 105 105 119 111 81 71 100 204 341 23 178 186 203 291 289 280 298 293
140 138 139 136 117 111 123 136 152 155 160 159 156 155 154 147 140 134 131 126 111 110 115 117 113 115 111 114 104 87 83 76 68 316 296 290 309 295 235 275 290 297 280
147 139 128 122 114 109 111 130 131 140 164 165 161 158 154 150 146 147 145 139 131 115 115 118 114 113 110 114 117 110 108 97 71 27 10 359 284 282 270 271 290 290 281
152 152 145 137 140 136 139 141 144 153 168 168 167 162 155 156 160 161 157 151 149 147 152 126 118 114 110 108 103 114 134 130 128 127 355 354 287 295 293 284 297 298 293
148 149 147 146 156 151 150 147 143 150 164 161 156 156 152 153 157 156 153 159 163 159 152 139 132 129 122 116 107 116 133 122 126 63 38 360 340 334 296 257 298 309 298
145 151 143 141 156 151 155 147 144 143 155 153 143 138 140 143 147 143 150 155 150 143 143 140 137 136 128 126 123 144 152 139 137 110 310 265 290 331 290 254 217 235 289
123 126 128 149 161 153 149 142 154 153 145 131 133 132 134 136 144 142 153 149 143 140 146 145 146 146 141 141 148 159 158 151 191 201 247 320 321 317 320 277 263 244 251
122 115 108 136 130 126 132 144 154 142 134 123 121 125 136 140 147 153 157 152 146 148 155 156 160 164 167 163 170 173 178 183 207 222 223 292 330 323 322 303 274 266 261
98 95 116 114 104 98 108 148 150 145 144 141 136 142 146 145 147 152 152 147 150 150 152 155 163 171 174 175 182 187 191 190 203 219 222 259 299 299 300 301 274 269 269
96 102 104 96 90 86 102 114 140 145 138 141 142 140 145 147 152 151 153 151 153 154 154 158 171 179 182 184 190 193 203 202 202 211 222 243 254 271 280 290 281 272 280
102 78 51 44 49 56 61 98 128 139 143 141 145 153 162 165 163 158 156 150 147 154 160 165 172 177 179 181 181 190 195 195 215 224 226 239 244 248 265 275 280 282 284
65 49 34 28 38 40 36 45 117 141 142 138 149 163 164 167 163 163 162 152 153 161 163 162 166 170 180 183 182 187 195 189 211 243 250 253 267 273 275 282 285 287 286
25 29 21 29 27 13 8 19 119 148 136 137 152 151 155 161 158 165 162 148 149 152 152 163 168 180 200 201 212 223 197 192 209 244 265 278 274 285 294 300 302 303 291
7 358 354 5 359 345 349 329 176 115 115 135 152 162 164 169 174 172 151 153 161 154 149 155 159 176 189 201 221 246 229 203 207 231 257 285 295 303 299 302 309 309 302
348 343 346 353 343 338 340 321 163 137 133 150 170 194 184 187 185 175 162 156 161 158 159 165 171 170 187 197 228 261 233 210 216 241 252 272 285 298 305 301 304 301 305
338 329 333 328 337 345 343 359 54 84 102 193 204 206 185 184 190 177 160 151 153 158 165 165 171 175 185 212 239 271 193 196 241 307 324 302 292 303 315 315 307 311 312
9 359 3 5 3 349 356 36 61 87 264 261 228 209 198 190 186 172 157 152 158 167 168 171 175 168 173 205 241 247 184 182 285 320 322 314 316 317 323 318 307 305 309
13 9 7 6 358 352 19 33 33 350 321 341 2 175 207 200 170 157 154 156 153 148 161 166 162 165 170 178 239 258 210 208 243 286 305 304 312 315 318 319 306 302 315
10 8 13 0 358 9 35 40 12 349 5 27 95 163 187 175 150 144 148 152 152 151 160 158 158 164 165 172 261 284 278 288 249 276 286 293 306 314 320 324 323 327 332
358 5 11 1 360 6 27 39 354 5 48 94 122 151 138 139 150 148 150 147 147 156 182 180 181 169 127 81 340 320 314 305 292 282 294 306 317 330 335 338 340 343 338
344 354 6 7 359 8 18 16 4 18 80 112 117 123 123 127 117 124 138 151 169 169 182 191 186 171 147 120 36 342 330 333 326 315 308 320 339 354 353 351 351 352 341
331 346 352 350 350 2 8 0 8 37 68 89 97 102 113 119 106 99 119 168 211 202 192 196 193 188 212 269 296 303 283 290 282 325 340 358 3 5 356 349 346 346 342
320 340 344 346 345 358 359 356 9 45 83 86 79 87 105 106 116 112 73 55 71 67 97 176 203 233 241 273 301 306 310 324 346 36 33 6 354 343 335 333 335 337 335
Height
1492 1494 1496 1498 1500 1502 1505 1507 1509 1511 1514 1516 1518 1520 1522 1525 1527 1529 1531 1533 1535 1536 1538 1539 1540 1541 1542 1542 1543 1543 1543 1543 1543 1543 1542 1542 1542 1541 1541 1541 1540 1539 1539
1490 1492 1494 1496 1498 1500 1502 1505 1507 1509 1511 1514 1516 1518 1520 1523 1525 1527 1529 1531 1532 1534 1535 1537 1538 1539 1540 1540 1541 1541 1541 1541 1541 1541 1540 1540 1540 1539 1539 1538 1538 1537 1536
1487 1490 1491 1493 1496 1498 1500 1502 1505 1507 1509 1512 1514 1516 1518 1520 1522 1524 1526 1528 1530 1532 1533 1535 1536 1536 1537 1538 1538 1539 1539 1539 1539 1539 1540 1539 1538 1536 1536 1536 1535 1534 1533
1485 1487 1489 1491 1494 1496 1498 1500 1503 1504 1507 1509 1511 1513 1515 1517 1519 1522 1524 1526 1527 1529 1531 1532 1533 1534 1535 1536 1536 1536 1536 1536 1536 1537 1537 1538 1537 1536 1533 1533 1532 1531 1530
1484 1485 1487 1490 1492 1493 1495 1498 1500 1502 1504 1506 1509 1511 1513 1515 1517 1519 1522 1524 1525 1527 1528 1530 1531 1532 1532 1533 1533 1534 1534 1534 1534 1534 1534 1534 1534 1533 1532 1529 1529 1528 1527
1481 1483 1485 1487 1489 1491 1493 1495 1497 1499 1501 1503 1506 1508 1510 1512 1514 1517 1519 1521 1523 1524 1526 1527 1528 1529 1530 1530 1531 1531 1531 1531 1531 1531 1531 1531 1531 1530 1529 1527 1525 1524 1524
1479 1481 1483 1485 1487 1488 1490 1492 1494 1496 1498 1500 1503 1505 1507 1509 1512 1514 1517 1518 1520 1521 1523 1524 1525 1526 1527 1528 1528 1528 1528 1529 1528 1528 1528 1528 1528 1527 1527 1525 1523 1521 1520
1477 1479 1481 1483 1485 1486 1488 1490 1491 1493 1496 1497 1499 1502 1504 1507 1509 1512 1514 1516 1517 1519 1520 1522 1523 1524 1524 1525 1525 1526 1525 1526 1525 1525 1525 1525 1525 1524 1523 1523 1521 1518 1516
1475 1477 1479 1481 1483 1484 1485 1487 1489 1491 1493 1494 1496 1499 1501 1504 1506 1509 1511 1513 1514 1516 1517 1519 1520 1521 1521 1522 1522 1523 1523 1523 1522 1522 1522 1522 1521 1521 1520 1519 1519 1518 1514
1473 1475 1477 1479 1480 1481 1483 1485 1487 1489 1490 1492 1494 1496 1498 1501 1504 1506 1508 1510 1512 1513 1514 1516 1517 1518 1518 1519 1520 1520 1520 1520 1520 1519 1518 1518 1518 1518 1517 1516 1515 1515 1513
1473 1474 1476 1477 1478 1479 1481 1482 1484 1486 1487 1489 1491 1493 1496 1498 1501 1503 1505 1507 1508 1510 1511 1513 1514 1514 1515 1516 1516 1517 1516 1516 1517 1516 1516 1515 1515 1514 1514 1512 1511 1511 1510
1472 1473 1475 1475 1476 1477 1478 1480 1481 1483 1485 1487 1489 1491 1493 1495 1498 1499 1502 1504 1505 1507 1508 1509 1510 1511 1512 1512 1513 1513 1513 1513 1513 1513 1512 1512 1511 1511 1510 1509 1508 1507 1506
1472 1472 1473 1473 1474 1475 1476 1477 1479 1480 1483 1485 1487 1488 1490 1492 1494 1496 1498 1500 1502 1503 1505 1506 1507 1507 1508 1508 1509 1509 1509 1509 1510 1510 1509 1508 1508 1507 1506 1506 1504 1503 1502
1471 1471 1471 1471 1472 1473 1474 1475 1477 1479 1481 1482 1483 1485 1487 1489 1491 1493 1494 1496 1498 1500 1501 1502 1503 1504 1504 1505 1505 1505 1506 1506 1506 1506 1505 1505 1504 1503 1502 1502 1501 1499 1497
1470 1470 1470 1470 1470 1471 1472 1473 1475 1476 1478 1479 1480 1482 1484 1486 1488 1489 1491 1492 1494 1496 1497 1498 1499 1500 1500 1501 1501 1502 1502 1502 1502 1502 1502 1501 1500 1500 1499 1498 1497 1495 1493
1469 1469 1469 1469 1469 1470 1470 1471 1472 1474 1475 1476 1477 1479 1481 1482 1484 1485 1487 1488 1490 1492 1493 1494 1495 1496 1496 1497 1497 1498 1498 1498 1498 1498 1497 1497 1497 1496 1495 1495 1493 1492 1490
1468 1468 1467 1467 1468 1468 1468 1469 1469 1471 1472 1473 1474 1475 1477 1479 1480 1482 1483 1485 1486 1488 1489 1490 1491 1492 1492 1493 1494 1494 1494 1494 1494 1494 1493 1493 1493 1493 1491 1490 1489 1488 1487
1466 1466 1465 1465 1465 1466 1466 1467 1467 1468 1469 1469 1470 1472 1474 1475 1477 1478 1480 1481 1482 1484 1485 1486 1487 1488 1489 1490 1490 1490 1490 1490 1490 1490 1490 1490 1489 1489 1488 1487 1485 1484 1482
1465 1465 1464 1463 1463 1463 1463 1464 1464 1465 1465 1466 1467 1469 1470 1472 1473 1474 1475 1477 1479 1480 1482 1483 1484 1485 1485 1486 1487 1487 1486 1486 1486 1486 1486 1486 1486 1485 1485 1483 1481 1480 1478
1464 1463 1462 1461 1461 1461 1461 1461 1461 1462 1462 1463 1464 1466 1467 1468 1470 1471 1472 1474 1475 1477 1478 1479 1481 1481 1482 1483 1483 1483 1483 1483 1482 1483 1483 1483 1482 1482 1481 1480 1478 1476 1474
1462 1461 1461 1460 1460 1459 1459 1459 1458 1459 1459 1460 1461 1462 1464 1465 1467 1468 1469 1471 1472 1473 1475 1476 1477 1478 1479 1479 1480 1480 1480 1479 1479 1479 1479 1479 1479 1478 1478 1476 1475 1473 1471
1461 1460 1459 1458 1458 1458 1457 1456 1456 1456 1456 1457 1458 1460 1461 1463 1464 1465 1466 1468 1469 1470 1472 1473 1474 1475 1476 1476 1476 1477 1477 1477 1476 1476 1476 1476 1476 1475 1475 1473 1472 1470 1468
1459 1459 1458 1457 1457 1456 1456 1455 1454 1454 1454 1455 1456 1457 1459 1460 1461 1462 1463 1464 1466 1467 1468 1469 1470 1471 1472 1473 1473 1474 1474 1474 1474 1473 1474 1473 1473 1472 1471 1470 1469 1467 1465
1458 1457 1456 1456 1455 1455 1454 1453 1453 1453 1453 1453 1454 1455 1456 1457 1458 1459 1460 1461 1462 1464 1465 1466 1467 1468 1469 1470 1470 1471 1471 1471 1471 1471 1471 1471 1470 1469 1468 1467 1466 1464 1462
1457 1456 1455 1454 1454 1453 1452 1452 1451 1451 1451 1451 1452 1453 1454 1454 1455 1457 1458 1459 1460 1461 1462 1463 1464 1465 1466 1467 1468 1468 1468 1468 1468 1468 1468 1468 1467 1466 1465 1465 1463 1462 1460
1455 1454 1454 1453 1452 1452 1451 1450 1450 1450 1449 1449 1450 1451 1452 1452 1453 1454 1455 1457 1458 1459 1460 1461 1462 1463 1464 1464 1465 1466 1466 1466 1466 1466 1465 1465 1464 1464 1463 1462 1460 1459 1457